Location: Limerick
(52.6650°N, 8.6230°W)
Time: 19:45:23
(UTC+01:00)

ISS - Pass Details

Date: 24 July 2017
Orbit: 400 x 408 km, 51.6° (Epoch: 21 July)

Event Time Altitude Azimuth Distance (km) Brightness Sun altitude
Rises 23:55:05 0° 237° (WSW) 2,306 -0.1 -13.9°
Reaches altitude 10° 23:57:13 10° 230° (SW) 1,449 -1.2 -14.0°
Maximum altitude 00:00:18 41° 158° (SSE) 595 -3.5 -14.2°
Drops below altitude 10° 00:03:23 10° 87° (E) 1,455 -1.2 -14.4°
Sets 00:05:32 0° 80° (E) 2,317 -0.1 -14.6°
